TIME,DELAY(SENSOR),PRES,OXYGEN,RAWTEMP,T(OPTODE),TCPHASE,FLUOR,BETA(BETA700),BETA(BETA412),BETA(BETA440),CDOM,C(CSC),ED(ED412.20),ED(ED444.00),ED(ED489.60),ED(ED554.30),LU(LU412.10),LU(LU443.90),LU(LU489.70),LU(LU554.70),COMP,TILTX,TILTY,CHECK
1363061368,5810,876.3599853515625000,33.8104095458984400,560.6630859375000000,4.4653429985046390,56.4796295166015600,56,98,99,79,83,15490,0,0,0,0,2147123483,2147770560,2147574619,2147567945,3015,2,13,45069
1363064964,5808,959.4699707031250000,39.1192016601562500,568.6837158203125000,4.2164587974548340,55.7365684509277340,54,98,100,79,82,15490,0,0,0,0,2147124489,2147766509,2147577700,2147569216,529,2,13,38911
1363068564,5808,968.9400024414062000,41.1358489990234400,570.5573120117188000,4.1582431793212890,55.4548301696777340,55,97,101,79,82,15488,0,0,0,0,2147122724,2147772288,2147572416,2147568365,484,2,13,51100
1363072164,5809,999.6500244140625000,42.7602615356445300,572.2960815429688000,4.1041870117187500,55.2316093444824200,54,99,99,77,81,15486,0,0,0,0,2147122276,2147769490,2147577481,2147567232,366,2,13,9772
1363075764,5810,1007.6400146484375000,42.3103408813476560,571.8831787109375000,4.1170248985290530,55.2924995422363300,54,98,100,78,81,15490,0,0,0,0,2147124589,2147774665,2147572160,2147568502,85,3,13,7127
1363079364,5808,1013.0599975585938000,42.2066307067871100,571.8941040039062000,4.1166858673095700,55.3069190979003900,56,98,100,78,82,15484,0,0,0,0,2147119945,2147773330,2147576356,2147569014,306,2,13,55707
1363082964,5812,1008.7800292968750000,41.8058280944824200,571.6812744140625000,4.1233019828796390,55.3659286499023440,54,99,100,78,82,15487,0,0,0,0,2147123849,2147770185,2147573842,2147568658,66,2,13,8153
1363086564,5808,999.4299926757812000,42.6984214782714840,573.2443847656250000,4.0746941566467285,55.2548408508300800,55,101,99,77,81,15484,0,0,0,0,2147122523,2147781220,2147573988,2147570642,3578,2,13,23895
1363090164,5806,998.4299926757812000,43.3349914550781250,574.5814819335938000,4.0330982208251950,55.1783218383789060,54,97,100,79,82,15485,0,0,0,0,2147122925,2147769042,2147574171,2147568557,3138,2,13,64084
1363093764,5809,1007.0399780273438000,43.7114105224609400,575.0338745117188000,4.0190200805664060,55.1269683837890600,55,98,100,78,82,15480,0,0,0,0,2147126052,2147778304,2147574226,2147570176,65,2,13,24301
1363097364,5812,1006.9000244140625000,43.7432098388671900,574.5759277343750000,4.0332741737365720,55.1157188415527340,54,97,101,78,82,15479,0,0,0,0,2147120091,2147773010,2147572809,2147565056,98,2,13,47398
1363100964,5809,1008.1900024414062000,43.0372314453125000,574.6577758789062000,4.0307250022888180,55.2174606323242200,54,98,100,79,82,15480,0,0,0,0,2147121508,2147771520,2147578294,2147570029,195,3,13,3190
1363104564,5810,1007.1199951171875000,43.2123908996582000,574.6400756835938000,4.0312771797180180,55.1968803405761700,54,98,100,78,81,15477,0,0,0,0,2147124790,2147770267,2147576905,2147569261,14,2,13,33476
1363108164,5807,1009.0300292968750000,43.2541809082031250,574.6494140625000000,4.0309867858886720,55.1875190734863300,55,98,100,77,83,15480,0,0,0,0,2147124690,2147767862,2147573787,2147568731,3585,2,13,2064
1363111764,5810,1009.3099975585938000,43.3036499023437500,574.5471191406250000,4.0341677665710450,55.1821708679199200,54,99,99,78,82,15479,0,0,0,0,2147123693,2147772178,2147574747,2147568283,134,2,13,22154
1363115364,5806,1016.4899902343750000,43.4905204772949200,574.5957031250000000,4.0326581001281740,55.1555290222168000,55,98,100,79,82,15475,0,0,0,0,2147123821,2147774436,2147575177,2147567414,143,2,13,37017
1363118964,5811,1008.6799926757812000,43.0060195922851560,574.3032226562500000,4.0417590141296390,55.2194595336914060,55,98,99,77,83,15477,0,0,0,0,2147118976,2147773010,2147575570,2147567442,3405,2,13,28896
1363122564,5807,1004.5499877929688000,43.2047691345214840,574.5430908203125000,4.0342941284179690,55.1916885375976560,55,99,102,78,82,15477,0,0,0,0,2147123328,2147775597,2147572077,2147569115,824,2,13,1433
1363126164,5808,1017.7800292968750000,43.4822006225585940,574.5681152343750000,4.0335178375244140,55.1555900573730500,54,97,101,79,82,15478,0,0,0,0,2147121938,2147771318,2147573275,2147571163,189,3,13,32822
1363129764,5807,1019.2299804687500000,43.3503913879394500,573.9492187500000000,4.0527729988098145,55.1704292297363300,55,98,101,78,82,15477,0,0,0,0,2147123574,2147766244,2147574208,2147568246,192,2,13,18053
1363133364,5809,1007.3200073242188000,42.9602508544921900,574.3524169921875000,4.0402259826660160,55.2296981811523440,55,99,100,78,82,15475,0,0,0,0,2147122733,2147770185,2147570916,2147566125,358,2,13,63470
1363136964,5810,1006.2100219726562000,42.9690017700195300,575.3189697265625000,4.0101509094238280,55.2351112365722660,54,98,99,78,82,15472,0,0,0,0,2147122587,2147772827,2147577453,2147566016,129,2,13,31081
1363140564,5810,1016.6799926757812000,44.0192909240722660,574.5463256835938000,4.0341930389404300,55.0840988159179700,55,98,100,77,81,15475,0,0,0,0,2147123282,2147771803,2147571995,2147565942,40,2,13,41590
1363144164,5808,1009.5399780273438000,43.3815193176269500,574.4901123046875000,4.0359420776367190,55.1700401306152340,56,99,99,79,83,15475,0,0,0,0,2147120795,2147773796,2147567542,2147565129,379,2,13,64177
1363147764,5811,1016.1099853515625000,43.6023597717285160,574.4807739257812000,4.0362339019775390,55.1346588134765600,55,98,100,77,82,15477,0,0,0,0,2147121728,2147773796,2147575012,2147567067,54,2,13,28322
1363151364,5807,1023.9500122070312000,43.2133598327636700,573.9688720703125000,4.0521559715271000,55.1874084472656250,54,98,100,77,82,15472,0,0,0,0,2147124406,2147771958,2147575890,2147565046,107,2,13,22162
1363154964,5810,1017.7399902343750000,42.4025611877441400,573.7141113281250000,4.0600829124450680,55.2986602783203100,54,99,100,78,81,15472,0,0,0,0,2147122203,2147774701,2147577243,2147567414,425,2,13,42789
1363158564,5806,1018.3599853515625000,42.4431114196777340,573.7728271484375000,4.0582599639892580,55.2935714721679700,55,98,100,77,82,15474,0,0,0,0,2147121472,2147770002,2147572900,2147570925,418,3,13,21643
1363162164,5808,1017.3699951171875000,42.8625297546386700,573.8220825195312000,4.0567250251770020,55.2367286682128900,54,97,100,79,82,15472,0,0,0,0,2147125019,2147772498,2147571904,2147567881,461,2,13,11515
1363165764,5808,1017.2100219726562000,42.4393501281738300,574.1680908203125000,4.0459609031677250,55.2995185852050800,55,99,101,77,82,15472,0,0,0,0,2147122340,2147774957,2147574985,2147569005,276,2,13,38275
1363169364,5813,1016.8099975585938000,42.5402603149414060,574.3792114257812000,4.0393939018249510,55.2897605895996100,56,100,100,79,82,15468,0,0,0,0,2147122678,2147770614,2147576338,2147567936,32,3,13,53505
1363172964,5809,1016.9400024414062000,42.5394592285156250,574.1704711914062000,4.0458850860595700,55.2884597778320300,55,97,100,78,81,15469,0,0,0,0,2147124406,2147767405,2147573760,2147570294,113,2,13,63605
1363176564,5809,1021.7299804687500000,42.8063087463378900,574.1076049804688000,4.0478420257568360,55.2488784790039060,54,102,100,78,82,15471,0,0,0,0,2147122112,2147776557,2147576256,2147568978,3496,2,13,60877
1363180164,5807,1011.4000244140625000,42.5409393310546900,574.4655151367188000,4.0367088317871090,55.2915992736816400,55,99,101,78,81,15469,0,0,0,0,2147124635,2147767451,2147576475,2147569371,215,2,13,32732
1363183764,5809,1008.0700073242188000,43.4343986511230500,574.8317260742188000,4.0253138542175290,55.1618118286132800,55,101,99,78,82,15458,0,0,0,0,2147123876,2147770194,2147575332,2147568374,3461,2,13,54418
1363187364,5811,1009.3699951171875000,43.7273101806640600,575.6536254882812000,3.9997370243072510,55.1330909729003900,55,98,100,78,82,15467,0,0,0,0,2147124306,2147771712,2147577481,2147570230,3554,2,13,35235
1363190964,5809,1012.4500122070312000,43.3749084472656250,575.7525024414062000,3.9966580867767334,55.1858482360839840,54,99,100,77,83,15470,0,0,0,0,2147125193,2147771675,2147575771,2147567890,3425,2,13,61672
1363194564,5809,1015.3200073242188000,43.2975883483886700,576.5606079101562000,3.9715039730072020,55.2019805908203100,54,96,101,77,81,15469,0,0,0,0,2147124763,2147774217,2147574848,2147568457,192,2,13,49484
1363198164,5808,1021.2100219726562000,44.0277595520019500,574.8179931640625000,4.0257401466369630,55.0840110778808600,55,98,100,79,82,15467,0,0,0,0,2147125814,2147768091,2147574674,2147571456,465,2,13,56217
1363201764,5810,1019.5200195312500000,43.8066101074218750,574.5972290039062000,4.0326118469238280,55.1104316711425800,53,98,99,78,82,15466,0,0,0,0,2147120804,2147770349,2147574939,2147569536,3116,2,13,22528
1363205364,5811,1023.9400024414062000,43.0508499145507800,573.7780151367188000,4.0581002235412600,55.2094383239746100,54,98,101,78,82,15466,0,0,0,0,2147122532,2147766034,2147575113,2147569152,2520,2,13,11510
1363206355,5810,1017.9600219726562000,42.7881813049316400,573.8488769531250000,4.0558910369873050,55.2476005554199200,54,96,98,76,82,15468,0,0,0,0,2147122294,2147773632,2147575003,2147567990,126,2,13,61312
